Back to catalog

OPS 8068

AliveMilitarySSO
NORAD 1580·PAYLOAD·🇺🇸 United States

Launched Sep 10, 1965 from Vandenberg Space Force Base

Loading…

Next Passes (next 24 hours)

TLE

FreshSource: Space-Track

Epoch: Sep 14, 2026, 09:43 UTC

1 01580U 65072A   26257.40486933  .00000288  00000-0  98280-4 0  9992
2 01580  98.4326  51.0644 0229509 141.8702 219.8973 14.29706268145765

Track OPS 8068 in real time with AllMySat

Download on the App Store